Flag for Greenland Weather past 2 weeks in Danmarkshavn, Greenland

Now
36 °F

Passing clouds.


Feels Like: 34 °F
Forecast: 27 / 32 °F
Wind: 3 mph from Southwest

Location: Danmarkshavn

Current Time: Sep 1, 2014 at 1:54:26 PM

Latest Report: Sep 1, 2014 at 1:00 PM


Visibility: 31 mi

Pressure: 29.91 "Hg

Humidity: 68%

Dew point: 27 °F

Location of DanmarkshavnLocation

Historic Weather in Danmarkshavn — Graph

°F

Danmarkshavn temperature yesterday

Maximum temperature yesterday: 37 °F (at 8:00 PM)
Minimum temperature yesterday: 32 °F (at 1:00 AM)
Average temperature yesterday: 35 °F

Past Weeks' High & Low Weather Summary

 TemperatureHumidityPressure
High51 °F (Aug 20, 5:00 PM)100% (Aug 25, 5:00 AM)30.25 "Hg (Aug 25, 5:00 AM)
Low30 °F (Aug 30, 5:00 AM)44% (Aug 18, 4:00 PM)29.47 "Hg (Aug 27, 6:00 PM)
Average39 °F75%29.91 "Hg
* Reported Aug 17 12:00 Noon — Sep 1 12:00 Noon, Danmarkshavn, Weather by CustomWeather, © 2014

Note: Actual official high and low records may vary slightly from our data, if they occured in-between our weather recording intervals... More about our weather records

Advertising

Danmarkshavn weather history for previous 24 hours

 ConditionsComfort  
Time TempWeatherWind HumidityBarometerVisibility
12:00 PM
Sep 1
37 °FSunny.3 mph66%29.92 "Hg28 mi
11:00 AM37 °FSunny.3 mph65%29.93 "Hg31 mi
10:00 AM38 °FPassing clouds.No wind66%29.94 "Hg25 mi
9:00 AM34 °FPassing clouds.No wind79%29.95 "Hg31 mi
8:00 AM35 °FOvercast.2 mph72%29.95 "Hg31 mi
7:00 AM32 °FOvercast.No wind87%29.96 "Hg31 mi
6:00 AM31 °FOvercast.No wind88%29.96 "Hg31 mi
5:00 AM31 °FPassing clouds.No wind83%29.96 "Hg31 mi
4:00 AM31 °FOvercast.No wind86%29.96 "Hg31 mi
3:00 AM32 °FPassing clouds.No wind84%29.97 "Hg31 mi
2:00 AM32 °FPassing clouds.No wind85%29.96 "Hg31 mi
1:00 AM33 °FClear.3 mph80%29.96 "Hg31 mi
12:00 AM33 °FPassing clouds.No wind83%29.97 "Hg31 mi
11:00 PM
Aug 31
35 °FPassing clouds.5 mph77%29.96 "Hg31 mi
10:00 PM35 °FPassing clouds.2 mph79%29.95 "Hg31 mi
9:00 PM35 °FOvercast.5 mph76%29.95 "Hg31 mi
8:00 PM37 °FOvercast.No wind67%29.93 "Hg31 mi
7:00 PM36 °FOvercast.5 mph70%29.92 "Hg31 mi
6:00 PM36 °FOvercast.6 mph73%29.91 "Hg31 mi
5:00 PM36 °FOvercast.3 mph74%29.90 "Hg31 mi
4:00 PM35 °FOvercast.7 mph75%29.90 "Hg31 mi
3:00 PM36 °FOvercast.6 mph71%29.90 "Hg31 mi
2:00 PM36 °FOvercast.9 mph76%29.91 "Hg31 mi
Weather by CustomWeather, © 2014

See weather overviewHow to use our weather pages